Flag for Ukraine Weather past 2 weeks in Odesa, Ukraine

Now
45 °F

Clear.


Feels Like: 41 °F
Forecast: 48 / 59 °F
Wind: 6 mph from West

Location: Odesa Airport


UV Index: 3 (Moderate)

Visibility: 10 mi


Pressure: 29.89 "Hg

Humidity: 87%

Dew point: 41 °F

Location of OdesaLocation

Historic Weather in Odesa

°F

Odesa temperature yesterday

Maximum temperature yesterday: 63 °F (at 12:00 PM)
Minimum temperature yesterday: 46 °F (at 3:30 AM)
Average temperature yesterday: 56 °F

Past Weeks' High & Low Weather Summary

 TemperatureHumidityPressure
High72 °F (Apr 17, 5:30 PM)100% (Apr 11, 12:30 AM)30.33 "Hg (Apr 11, 12:30 AM)
Low36 °F (Apr 8, 7:00 AM)27% (Apr 17, 3:30 PM)29.71 "Hg (Apr 18, 3:00 PM)
Average51 °F73%29.97 "Hg
* Reported Apr 5 6:00 AM — Apr 20 6:00 AM, Odesa, Weather by CustomWeather, © 2014

Note: Actual official high and low records may vary slightly from our data, if they occured in-between our weather recording intervals... More about our weather records

Advertising

Historic Weather Conditions — Data for Previous 24 hours

 ConditionsComfort  
Time TempWeatherWind HumidityBarometerVisibility
6:00 AM
Apr 20
43 °FClear.8 mph87%29.89 "Hg10 mi
5:30 AM45 °FClear.8 mph81%29.89 "Hg10 mi
5:00 AM45 °FClear.3 mph81%29.89 "Hg10 mi
4:30 AM46 °FClear.1 mph76%29.89 "Hg10 mi
4:00 AM48 °FClear.3 mph66%29.89 "Hg10 mi
3:30 AM48 °FClear.3 mph66%29.89 "Hg10 mi
3:00 AM48 °FClear.3 mph66%29.89 "Hg10 mi
2:30 AM50 °FClear.3 mph62%29.92 "Hg10 mi
2:00 AM50 °FClear.3 mph62%29.92 "Hg10 mi
1:30 AM50 °FClear.3 mph62%29.92 "Hg10 mi
1:00 AM50 °FClear.3 mph62%29.92 "Hg10 mi
12:30 AM50 °FClear.3 mph62%29.92 "Hg10 mi
12:00 AM50 °FClear.No wind62%29.92 "Hg10 mi
11:30 PM
Apr 19
50 °FClear.No wind67%29.92 "Hg10 mi
11:00 PM50 °FClear.6 mph67%29.92 "Hg10 mi
10:30 PM52 °FClear.3 mph67%29.95 "Hg10 mi
10:00 PM52 °FClear.6 mph67%29.95 "Hg10 mi
9:30 PM54 °FClear.No wind63%29.95 "Hg10 mi
9:00 PM54 °FClear.No wind63%29.95 "Hg10 mi
8:30 PM55 °FSunny.No wind55%29.95 "Hg10 mi
8:00 PM59 °FSunny.No wind51%29.95 "Hg10 mi
7:30 PM59 °FSunny.1 mph51%29.95 "Hg10 mi
7:00 PM63 °FSunny.3 mph45%29.95 "Hg10 mi
6:30 PM63 °FPassing clouds.6 mph42%29.95 "HgN/A
6:00 PM63 °FSunny.3 mph45%29.95 "Hg10 mi
5:30 PM63 °FPassing clouds.6 mph49%29.95 "HgN/A
5:00 PM63 °FPassing clouds.3 mph52%29.95 "HgN/A
4:30 PM63 °FPassing clouds.6 mph56%29.95 "HgN/A
4:00 PM63 °FBroken clouds.6 mph56%29.95 "HgN/A
3:30 PM63 °FBroken clouds.6 mph56%29.95 "HgN/A
3:00 PM63 °FBroken clouds.6 mph59%29.95 "HgN/A
2:30 PM61 °FBroken clouds.6 mph63%29.98 "HgN/A
2:00 PM63 °FBroken clouds.6 mph59%29.98 "HgN/A
1:30 PM63 °FBroken clouds.8 mph59%29.98 "HgN/A
1:00 PM63 °FBroken clouds.6 mph59%29.98 "HgN/A
12:30 PM63 °FBroken clouds.8 mph59%29.98 "HgN/A
12:00 PM63 °FPartly sunny.8 mph64%29.98 "HgN/A
11:30 AM61 °FPartly sunny.3 mph68%29.95 "HgN/A
11:00 AM61 °FPartly sunny.No wind68%29.95 "HgN/A
10:30 AM59 °FSunny.No wind68%29.92 "Hg10 mi
10:00 AM57 °FSunny.6 mph77%29.92 "Hg10 mi
9:30 AM57 °FSunny.6 mph72%29.92 "Hg10 mi
9:00 AM57 °FPassing clouds.3 mph72%29.92 "HgN/A
8:30 AM55 °FSunny.6 mph77%29.89 "Hg10 mi
8:00 AM54 °FSunny.8 mph88%29.89 "Hg10 mi
7:30 AM50 °FSunny.6 mph88%29.89 "Hg10 mi
7:00 AM48 °FClear.3 mph94%29.89 "Hg10 mi
Weather by CustomWeather, © 2014

See weather overview